Location: Mat�lon
(46.2791°N, 7.1028°E)
Time: 16:33:59
(UTC+00:00)

Cosmos 2151 Rocket - Pass Details

Date: 18 September 2020
Orbit: 617 x 642 km, 82.5° (Epoch: 29 October)

Event Time Altitude Azimuth Distance (km) Brightness Sun altitude
Rises 18:43:50 0° 165° (SSE) 2,899 6.7 -12.3°
Reaches altitude 10° 18:46:10 10° 157° (SSE) 2,001 5.8 -12.7°
Maximum altitude 18:50:13 36° 91° (E) 1,008 4.1 -13.4°
Drops below altitude 10° 18:54:20 10° 25° (NNE) 2,031 6.1 -14.1°
Sets 18:56:43 0° 17° (NNE) 2,948 7.1 -14.4°
